[[{"header":{"parameterUnit":"m.s-1","parameterCategory":1,"la1":30.2991,"la2":30.254,"lo1":-89.0895,"lo2":-89.0444,"dy":0.0017,"dx":0.0017,"nx":28,"ny":28,"refTime":"2025-09-11T09:00:00:Z","depth":0,"parameterNumber":2,"parameterNumberName":"U-component_of_WINDS"},"data":[0,0,0,0,0,0,0,0,0,0,0,0,0,0,0,0,0,0,0,0,0,0,0,0,0,0,0,0,0,0,0,0,0,0,0,0,0,0,0,0,0,0,0,0,0,0,0,0,0,0,0,0,0,0,0,0,0,0,-0.2154,-0.2153,0,-0.2093,-0.2092,-0.2091,-0.2054,-0.2054,-0.2054,-0.2054,-0.1991,-0.199,-0.1988,0,0,0,0,0,0,0,0,0,0,0,0,0,-0.224,-0.2239,-0.2154,-0.2153,-0.2152,-0.2093,-0.2092,-0.2091,-0.2054,-0.2054,-0.2054,-0.2054,-0.1992,-0.199,-0.1988,0,0,0,0,0,0,0,0,0,0,0,0,0,-0.2193,-0.2238,-0.2154,-0.2127,-0.2123,-0.2093,-0.2092,-0.2091,-0.2054,-0.2054,-0.2054,-0.2053,-0.1992,-0.199,-0.1988,-0.198,0,0,-0.1981,-0.198,0,0,0,0,0,0,0,0,-0.2196,-0.219,-0.2131,-0.2128,-0.2125,-0.2081,-0.21,-0.2054,-0.2054,-0.2081,-0.2054,-0.2053,-0.2021,-0.2017,-0.2006,-0.1977,-0.1974,-0.1981,-0.198,-0.1979,-0.1978,0,0,0,0,0,0,0,-0.2199,-0.2192,-0.2129,-0.213,-0.2127,-0.2118,-0.2111,-0.2091,-0.2053,-0.2078,-0.2075,-0.2069,-0.2019,-0.2008,-0.2004,-0.1973,-0.1981,-0.1979,-0.1978,-0.1977,-0.1938,-0.1938,0,0,0,0,0,0,-0.2207,-0.2195,-0.2131,-0.2128,-0.216,-0.2117,-0.2109,-0.2095,-0.2053,-0.2047,-0.2069,-0.2067,-0.2012,-0.2007,-0.2002,-0.1991,-0.1979,-0.1976,-0.1975,-0.1938,-0.1938,-0.1938,0,0,0,0,0,0,-0.2209,-0.2201,-0.2134,-0.2161,-0.2152,-0.2116,-0.21,-0.2094,-0.2083,-0.2046,-0.204,-0.2064,-0.2012,-0.2005,-0.1986,-0.1989,-0.1975,-0.1973,-0.1937,-0.1938,-0.1938,-0.197,0,0,0,0,0,0,-0.2211,-0.2202,-0.2198,-0.2161,-0.215,-0.2119,-0.21,-0.2093,-0.2079,-0.2076,-0.204,-0.2034,-0.2011,-0.199,-0.1984,-0.1985,-0.1972,-0.1937,-0.1938,-0.1938,-0.1968,-0.1971,-0.1974,0,0,0,0,0,-0.2214,-0.2208,-0.2198,-0.219,-0.2144,-0.2119,-0.2113,-0.2087,-0.2079,-0.2075,-0.2053,-0.2035,-0.199,-0.1988,-0.1981,-0.1982,-0.1937,-0.1937,-0.1938,-0.1967,-0.1971,-0.1974,0,0,0,0,0,0,-0.2245,-0.2203,-0.2191,-0.2172,-0.215,-0.2113,-0.2107,-0.2091,-0.2069,-0.2068,-0.2036,-0.2028,-0.2014,-0.1996,-0.1995,-0.1974,-0.1961,-0.1961,-0.1986,-0.1989,-0.1991,-0.1996,-0.197,0,0,0,0,0,-0.225,-0.2233,-0.2197,-0.2184,-0.2174,-0.2143,-0.213,-0.2113,-0.2088,-0.2078,-0.2053,-0.203,-0.2011,-0.1999,-0.1979,-0.1966,-0.1959,-0.1963,-0.1966,-0.1969,-0.1968,-0.1963,-0.1965,-0.1941,-0.1941,-0.1941,0,0,-0.2259,-0.2234,-0.2225,-0.219,-0.217,-0.2154,-0.2134,-0.2117,-0.2106,-0.2075,-0.2057,-0.2038,-0.2011,-0.1996,-0.1988,-0.198,-0.1974,-0.1969,-0.1972,-0.197,-0.1964,-0.1967,-0.1969,-0.1941,-0.1941,-0.1941,0,0,-0.2269,-0.2247,-0.2236,-0.2217,-0.2188,-0.2168,-0.2166,-0.2132,-0.2119,-0.21,-0.2078,-0.2064,-0.203,-0.2013,-0.1999,-0.2006,-0.199,-0.2,-0.2014,-0.201,-0.2012,-0.2013,-0.2018,-0.2019,-0.2,-0.2,-0.2,0,-0.2284,-0.2258,-0.2232,-0.2217,-0.2203,-0.2176,-0.2166,-0.2149,-0.2115,-0.2107,-0.2099,-0.2059,-0.2038,-0.202,-0.2022,-0.2012,-0.2009,-0.2004,-0.2013,-0.2015,-0.2016,-0.202,-0.2021,-0.2002,-0.2002,-0.2002,-0.2001,0,-0.228,-0.2263,-0.2257,-0.2226,-0.2212,-0.2199,-0.2172,-0.2161,-0.2145,-0.2127,-0.211,-0.2084,-0.206,-0.2054,-0.2038,-0.2035,-0.2032,-0.2019,-0.2006,-0.202,-0.2024,-0.2025,-0.2004,-0.2004,-0.2003,-0.2003,0,0,-0.2304,-0.2262,-0.226,-0.2247,-0.2215,-0.2202,-0.2189,-0.2167,-0.2159,-0.2137,-0.2127,-0.2101,-0.2091,-0.2076,-0.2058,-0.2053,-0.2063,-0.2042,-0.2041,-0.2048,-0.2061,-0.2071,-0.2073,-0.2053,-0.2053,-0.2053,-0.2064,0,-0.2309,-0.2285,-0.2262,-0.2247,-0.2232,-0.2209,-0.2198,-0.2178,-0.2161,-0.2147,-0.2128,-0.2111,-0.2097,-0.2089,-0.2084,-0.2063,-0.2066,-0.2062,-0.2044,-0.2044,-0.2052,-0.2075,-0.2084,-0.2096,-0.2065,-0.2065,-0.2065,0,-0.2311,-0.2292,-0.2276,-0.2249,-0.2242,-0.2232,-0.2212,-0.2198,-0.2176,-0.2164,-0.215,-0.2131,-0.2119,-0.2108,-0.2091,-0.2089,-0.2081,-0.207,-0.207,-0.2067,-0.2056,-0.2074,-0.2099,-0.2101,-0.2066,-0.2066,-0.2066,0,-0.2333,-0.2303,-0.229,-0.228,-0.2247,-0.2242,-0.2228,-0.2206,-0.2195,-0.2177,-0.217,-0.2151,-0.214,-0.2126,-0.2104,-0.2098,-0.2091,-0.2077,-0.2082,-0.2083,-0.2081,-0.2082,-0.2106,-0.2075,-0.2075,-0.2075,-0.2075,0,-0.2341,-0.2332,-0.23,-0.2292,-0.2283,-0.2258,-0.2249,-0.2233,-0.2215,-0.2204,-0.2182,-0.2173,-0.2144,-0.2132,-0.2115,-0.2105,-0.21,-0.2092,-0.2087,-0.2094,-0.2095,-0.2088,-0.2087,-0.2075,-0.2075,-0.2075,-0.2075,0,-0.2362,-0.234,-0.2325,-0.2297,-0.229,-0.2284,-0.226,-0.2253,-0.2236,-0.2224,-0.2219,-0.2193,-0.2178,-0.2155,-0.2132,-0.2121,-0.2115,-0.2107,-0.2123,-0.212,-0.2127,-0.2127,-0.2148,-0.215,-0.2117,-0.2117,-0.2117,0,-0.2369,-0.2362,-0.2334,-0.2327,-0.2314,-0.2301,-0.2291,-0.2267,-0.2257,-0.2234,-0.223,-0.2214,-0.2199,-0.2177,-0.2156,-0.214,-0.2132,-0.2141,-0.2129,-0.2138,-0.2134,-0.2135,-0.2136,-0.2143,-0.2144,-0.2144,-0.2145,0,-0.2384,-0.2375,-0.2361,-0.2344,-0.2333,-0.2318,-0.2302,-0.2297,-0.2271,-0.2261,-0.2246,-0.2236,-0.2215,-0.22,-0.2181,-0.2168,-0.2153,-0.2149,-0.2149,-0.2156,-0.2166,-0.2163,-0.2131,-0.2148,-0.2148,-0.2148,-0.2147,-0.2147,-0.2399,-0.2393,-0.2374,-0.236,-0.2347,-0.2334,-0.2326,-0.231,-0.2297,-0.2279,-0.2266,-0.2253,-0.2234,-0.2208,-0.2196,-0.2187,-0.218,-0.218,-0.218,-0.2181,-0.2184,-0.2168,-0.2183,-0.2183,-0.2183,-0.2183,-0.2182,0,-0.2415,-0.2402,-0.239,-0.237,-0.236,-0.2348,-0.2331,-0.2323,-0.2312,-0.2296,-0.2284,-0.2269,-0.2255,-0.2235,-0.222,-0.2216,-0.2209,-0.2213,-0.2214,-0.2211,-0.219,-0.2192,-0.222,-0.222,-0.222,-0.222,-0.222,-0.222,-0.2421,-0.2412,-0.2401,-0.2385,-0.2373,-0.236,-0.2352,-0.2341,-0.2329,-0.2313,-0.2303,-0.229,-0.2273,-0.2258,-0.2245,-0.224,-0.2236,-0.2243,-0.2235,-0.2216,-0.2212,-0.2209,-0.2211,-0.2242,-0.2242,-0.2257,-0.2257,-0.2257]},{"header":{"parameterUnit":"m.s-1","parameterCategory":1,"la1":30.2991,"la2":30.254,"lo1":-89.0895,"lo2":-89.0444,"dy":0.0017,"dx":0.0017,"nx":28,"ny":28,"refTime":"2025-09-11T09:00:00:Z","depth":0,"parameterNumber":3,"parameterNumberName":"V-component_of_WINDS"},"data":[0,0,0,0,0,0,0,0,0,0,0,0,0,0,0,0,0,0,0,0,0,0,0,0,0,0,0,0,0,0,0,0,0,0,0,0,0,0,0,0,0,0,0,0,0,0,0,0,0,0,0,0,0,0,0,0,0,0,3.9145,3.9145,0,3.9151,3.9151,3.9151,3.9141,3.914,3.914,3.914,3.9144,3.9144,3.9145,0,0,0,0,0,0,0,0,0,0,0,0,0,3.9123,3.9123,3.9145,3.9145,3.9145,3.9151,3.9151,3.9151,3.9141,3.914,3.914,3.9139,3.9144,3.9144,3.9145,0,0,0,0,0,0,0,0,0,0,0,0,0,3.9131,3.9123,3.9145,3.9141,3.914,3.9151,3.9151,3.9151,3.9141,3.914,3.914,3.9139,3.9144,3.9144,3.9145,3.9159,0,0,3.9147,3.9147,0,0,0,0,0,0,0,0,3.913,3.9132,3.9141,3.9141,3.9141,3.9144,3.9144,3.9153,3.9141,3.9141,3.914,3.9139,3.9144,3.9145,3.9147,3.9159,3.9159,3.9147,3.9147,3.9147,3.9148,0,0,0,0,0,0,0,3.913,3.9131,3.9147,3.9141,3.9141,3.9138,3.9138,3.9146,3.9145,3.9141,3.914,3.9141,3.9144,3.9146,3.9147,3.9159,3.9147,3.9147,3.9148,3.9148,3.9181,3.9181,0,0,0,0,0,0,3.913,3.9131,3.9147,3.9147,3.9134,3.9138,3.9139,3.9144,3.9145,3.9145,3.9141,3.914,3.9146,3.9146,3.9147,3.9162,3.9147,3.9148,3.9148,3.918,3.9181,3.9182,0,0,0,0,0,0,3.913,3.9132,3.9147,3.9139,3.9141,3.9139,3.9145,3.9144,3.9146,3.9146,3.9145,3.9144,3.9145,3.9146,3.9156,3.9162,3.9148,3.9149,3.918,3.9181,3.9181,3.9193,0,0,0,0,0,0,3.9129,3.9131,3.9138,3.9139,3.9141,3.9156,3.9145,3.9145,3.9148,3.9147,3.9148,3.9148,3.9145,3.9155,3.9156,3.9163,3.9149,3.9179,3.918,3.9181,3.9192,3.9194,3.9196,0,0,0,0,0,3.9128,3.9141,3.9138,3.914,3.9149,3.9156,3.9157,3.9154,3.9148,3.9154,3.9153,3.9148,3.9161,3.9156,3.9157,3.9164,3.9179,3.918,3.9181,3.9191,3.9194,3.9196,0,0,0,0,0,0,3.914,3.9141,3.9138,3.9152,3.9154,3.9155,3.9162,3.9157,3.9161,3.916,3.9156,3.9156,3.9166,3.9166,3.916,3.9177,3.9169,3.917,3.9176,3.9179,3.918,3.918,3.915,0,0,0,0,0,3.9144,3.9151,3.9151,3.9163,3.9165,3.9163,3.9166,3.9164,3.9166,3.9167,3.9167,3.9168,3.9173,3.9176,3.918,3.9192,3.9192,3.9198,3.92,3.9201,3.9202,3.9207,3.9209,3.9185,3.9185,3.9185,0,0,3.9153,3.9154,3.9159,3.9166,3.9167,3.9173,3.9164,3.9171,3.9175,3.9168,3.9176,3.9176,3.9178,3.9188,3.9193,3.9189,3.9209,3.9203,3.9204,3.9204,3.9208,3.921,3.9212,3.9186,3.9186,3.9186,0,0,3.9171,3.9174,3.9183,3.9185,3.9187,3.9186,3.9188,3.9189,3.9189,3.9197,3.9191,3.9196,3.9204,3.9205,3.9206,3.9224,3.9218,3.9225,3.9235,3.9239,3.9241,3.9243,3.9247,3.9249,3.9226,3.9226,3.9226,0,3.9182,3.9191,3.9188,3.9196,3.9198,3.9191,3.92,3.9201,3.9205,3.9206,3.9202,3.9211,3.9212,3.9221,3.9226,3.9228,3.9229,3.9225,3.9241,3.9243,3.9244,3.9249,3.9251,3.9227,3.9227,3.9227,3.9227,0,3.9203,3.9209,3.9216,3.922,3.9223,3.9231,3.9228,3.9232,3.9228,3.9227,3.9235,3.9235,3.9239,3.9241,3.9238,3.925,3.9247,3.9242,3.9234,3.9247,3.9251,3.9253,3.9228,3.9228,3.9228,3.9228,0,0,3.9229,3.923,3.9232,3.9233,3.9235,3.9239,3.9246,3.925,3.9252,3.9254,3.9259,3.9266,3.9261,3.9262,3.9259,3.9264,3.9275,3.9258,3.9258,3.926,3.9286,3.9289,3.9291,3.9272,3.9272,3.9273,3.9285,0,3.9246,3.9258,3.9255,3.9266,3.9271,3.9265,3.927,3.9272,3.927,3.9274,3.9272,3.9276,3.927,3.9271,3.9275,3.9273,3.928,3.9272,3.9275,3.9275,3.9274,3.9293,3.9296,3.9308,3.9287,3.9287,3.9288,0,3.9267,3.927,3.9282,3.9281,3.9283,3.9289,3.9291,3.9295,3.9295,3.9294,3.9295,3.9291,3.9296,3.9289,3.9296,3.929,3.9291,3.929,3.9291,3.929,3.9281,3.9292,3.9312,3.9314,3.929,3.929,3.929,0,3.9283,3.929,3.9297,3.9298,3.9298,3.9302,3.9302,3.9302,3.9304,3.9306,3.9306,3.9309,3.931,3.9311,3.9307,3.9303,3.9314,3.9306,3.9312,3.9312,3.9314,3.9314,3.9334,3.9317,3.9317,3.9317,3.9316,0,3.9301,3.9308,3.9304,3.9309,3.9316,3.9312,3.9319,3.9319,3.9318,3.9322,3.9317,3.932,3.9315,3.9318,3.9315,3.932,3.9321,3.9319,3.9318,3.9319,3.9319,3.9318,3.9317,3.9317,3.9317,3.9317,3.9317,0,3.9319,3.9317,3.9325,3.9324,3.9324,3.9329,3.9328,3.9331,3.9329,3.9334,3.9335,3.9331,3.9334,3.9331,3.9333,3.9331,3.9337,3.9336,3.9337,3.9336,3.9341,3.934,3.9361,3.9363,3.9346,3.9346,3.9346,0,3.9331,3.9336,3.9335,3.9337,3.9337,3.9341,3.9343,3.9339,3.934,3.9341,3.9344,3.9346,3.9348,3.9352,3.9349,3.9351,3.9348,3.9355,3.9348,3.9349,3.9347,3.9346,3.9346,3.9356,3.9357,3.9357,3.9357,0,3.935,3.9348,3.9351,3.9353,3.9355,3.9357,3.9357,3.9359,3.9355,3.9357,3.936,3.9361,3.9363,3.9364,3.9365,3.9364,3.9359,3.9359,3.936,3.9361,3.9361,3.9359,3.934,3.9359,3.9358,3.9358,3.9358,3.9358,3.9364,3.9368,3.9367,3.937,3.937,3.9371,3.9374,3.9372,3.9375,3.9376,3.9374,3.9376,3.9376,3.9376,3.9376,3.9377,3.9374,3.9376,3.9376,3.9376,3.9377,3.9362,3.9377,3.9377,3.9377,3.9377,3.9377,0,3.9382,3.9381,3.9384,3.9385,3.9387,3.9383,3.9383,3.9385,3.9387,3.9387,3.9389,3.9391,3.9392,3.939,3.9391,3.9392,3.939,3.9393,3.9392,3.9391,3.938,3.9378,3.9394,3.9394,3.9394,3.9394,3.9394,3.9394,3.9391,3.9397,3.9395,3.94,3.9399,3.9402,3.9402,3.9403,3.9402,3.9405,3.9406,3.9405,3.9403,3.9404,3.9405,3.9404,3.9404,3.9407,3.9405,3.9394,3.9392,3.9391,3.9389,3.9407,3.9407,3.9416,3.9416,3.9416]}]]